Grinnell, IA

9:17 PM CST on February 25, 2017 (GMT -0600)
Grinnell Regional

Weather History for KGGI - April, 2013

Change the Weather History Date:

Sunday, April 21, 2013

  Actual Average (KTNU) Record (KTNU)
Temperature  
Mean Temperature 51 °F -  
Max Temperature 65 °F 61 °F 92 °F (1980)
Min Temperature 37 °F 40 °F 27 °F (1982)
Degree Days  
Heating Degree Days 14    
Growing Degree Days 1 (Base 50)    
Moisture  
Dew Point 38 °F    
Average Humidity 61    
Maximum Humidity 76    
Minimum Humidity 37    
Precipitation  
Precipitation 0.00 in - - ()
Sea Level Pressure  
Sea Level Pressure 30.20 in    
Wind  
Wind Speed 15 mph (SE)    
Max Wind Speed 24 mph    
Max Gust Speed 30 mph    
Visibility 10 miles    
Events Rain    
Averages and records for this station are not official NWS values.
T = Trace of Precipitation, MM = Missing Value Source: NWS Daily Summary

Daily Weather History Graph

Daily Weather History Graph

Search for Another Location

Airport or City:

Trip Planner

Search our weather history database for the weather conditions in past years. The results will help you decide how hot, cold, wet, or windy it might be!

Date:

Astronomy

Apr. 21, 2013 Rise Set
Actual Time 6:21 AM CDT 7:58 PM CDT
Civil Twilight 5:51 AM CDT 8:28 PM CDT
Nautical Twilight 5:16 AM CDT 9:03 PM CDT
Astronomical Twilight 4:38 AM CDT 9:41 PM CDT
Moon 3:41 PM CDT (4/21) 3:47 AM CDT (4/21)
Length of Visible Light 14h 36m
Length of Day
13h 37m
Waxing Gibbous, 80% of the Moon is Illuminated
Apr 21
Waxing Gibbous
Apr 25
Full
May 2
Last Quarter
May 9
New
May 17
First Quarter

Hourly Weather History & Observations

Time (CDT) Temp. Windchill Dew Point Humidity Pressure Visibility Wind Dir Wind Speed Gust Speed Precip Events Conditions
12:15 AM 37.6 °F 31.0 °F 30.0 °F 74% 30.28 in 10.0 mi ESE 9.2 mph - N/A   Scattered Clouds
12:35 AM 38.1 °F 30.7 °F 29.3 °F 71% 30.27 in 10.0 mi ESE 11.5 mph - N/A   Scattered Clouds
12:55 AM 38.3 °F 30.5 °F 29.3 °F 70% 30.27 in 10.0 mi ESE 12.7 mph - N/A   Scattered Clouds
1:15 AM 38.5 °F 30.7 °F 29.3 °F 70% 30.26 in 10.0 mi ESE 12.7 mph 16.1 mph N/A   Overcast
1:35 AM 38.8 °F 31.6 °F 29.5 °F 69% 30.26 in 10.0 mi ESE 11.5 mph - N/A   Overcast
4:15 AM 39.6 °F 31.7 °F 30.4 °F 70% 30.26 in 10.0 mi SE 13.8 mph 19.6 mph N/A   Overcast
4:35 AM 39.6 °F 31.7 °F 30.9 °F 71% 30.25 in 10.0 mi SE 13.8 mph 19.6 mph N/A   Overcast
4:55 AM 39.6 °F 32.5 °F 31.5 °F 73% 30.26 in 10.0 mi SE 11.5 mph - N/A   Overcast
5:15 AM 39.4 °F 33.8 °F 31.6 °F 74% 30.27 in 10.0 mi ESE 8.1 mph - N/A   Overcast
5:35 AM 39.4 °F 32.3 °F 32.0 °F 75% 30.27 in 10.0 mi ESE 11.5 mph - N/A   Overcast
5:55 AM 39.4 °F 32.7 °F 32.0 °F 75% 30.27 in 10.0 mi ESE 10.4 mph - N/A   Overcast
6:15 AM 39.4 °F 30.7 °F 32.0 °F 75% 30.26 in 10.0 mi ESE 16.1 mph - N/A   Overcast
6:35 AM 39.6 °F 31.7 °F 32.0 °F 74% 30.27 in 10.0 mi ESE 13.8 mph - N/A   Overcast
6:55 AM 39.6 °F 31.3 °F 32.0 °F 74% 30.28 in 10.0 mi ESE 15.0 mph - N/A   Overcast
7:15 AM 39.9 °F 32.5 °F 32.2 °F 74% 30.28 in 10.0 mi ESE 12.7 mph 17.3 mph N/A   Overcast
7:35 AM 40.1 °F 31.6 °F 32.0 °F 73% 30.28 in 10.0 mi ESE 16.1 mph 19.6 mph N/A   Overcast
7:55 AM 40.5 °F 32.5 °F 32.2 °F 72% 30.29 in 10.0 mi ESE 15.0 mph 18.4 mph N/A   Overcast
8:15 AM 41.4 °F 33.6 °F 32.7 °F 71% 30.29 in 10.0 mi SE 15.0 mph - N/A   Mostly Cloudy
8:35 AM 42.1 °F 33.9 °F 32.7 °F 69% 30.28 in 10.0 mi SE 17.3 mph 25.3 mph N/A   Mostly Cloudy
8:55 AM 42.3 °F 35.1 °F 33.1 °F 70% 30.28 in 10.0 mi SE 13.8 mph 19.6 mph N/A   Mostly Cloudy
9:15 AM 43.2 °F 35.9 °F 33.6 °F 69% 30.28 in 10.0 mi SE 15.0 mph 19.6 mph N/A   Overcast
9:35 AM 45.7 °F 38.0 °F 34.5 °F 65% 30.28 in 10.0 mi SE 19.6 mph 24.2 mph N/A   Mostly Cloudy
9:55 AM 45.5 °F 37.6 °F 34.2 °F 65% 30.27 in 10.0 mi SE 20.7 mph 26.5 mph N/A   Mostly Cloudy
10:15 AM 47.8 °F - 35.6 °F 63% 30.27 in 10.0 mi SE 18.4 mph 24.2 mph N/A   Mostly Cloudy
10:35 AM 47.7 °F - 35.6 °F 63% 30.26 in 10.0 mi SE 19.6 mph 25.3 mph N/A   Mostly Cloudy
10:55 AM 48.9 °F - 36.5 °F 62% 30.27 in 10.0 mi SSE 18.4 mph 25.3 mph N/A   Mostly Cloudy
11:15 AM 51.1 °F - 37.4 °F 60% 30.26 in 10.0 mi SE 20.7 mph 27.6 mph N/A   Scattered Clouds
11:35 AM 52.7 °F - 38.3 °F 58% 30.25 in 10.0 mi SSE 24.2 mph 28.8 mph N/A   Scattered Clouds
11:55 AM 53.2 °F - 38.7 °F 58% 30.24 in 10.0 mi SSE 21.9 mph 26.5 mph N/A   Scattered Clouds
12:15 PM 54.0 °F - 39.4 °F 58% 30.23 in 10.0 mi SE 21.9 mph - N/A   Mostly Cloudy
12:35 PM 55.4 °F - 40.3 °F 57% 30.23 in 10.0 mi SE 17.3 mph 25.3 mph N/A   Scattered Clouds
12:55 PM 57.4 °F - 40.3 °F 53% 30.21 in 10.0 mi SSE 21.9 mph 26.5 mph N/A   Clear
1:15 PM 58.6 °F - 40.8 °F 52% 30.20 in 10.0 mi SSE 19.6 mph 26.5 mph N/A   Clear
1:35 PM 59.7 °F - 41.2 °F 50% 30.19 in 10.0 mi SSE 18.4 mph 26.5 mph N/A   Clear
1:55 PM 61.2 °F - 41.7 °F 49% 30.18 in 10.0 mi SSE 18.4 mph 26.5 mph N/A   Clear
2:15 PM 61.7 °F - 41.4 °F 47% 30.18 in 10.0 mi SSE 21.9 mph 26.5 mph N/A   Clear
2:35 PM 63.1 °F - 41.9 °F 46% 30.16 in 10.0 mi SSE 21.9 mph 28.8 mph N/A   Clear
2:55 PM 63.7 °F - 41.7 °F 45% 30.15 in 10.0 mi SSE 21.9 mph 27.6 mph N/A   Clear
3:15 PM 64.9 °F - 41.9 °F 43% 30.15 in 10.0 mi South 16.1 mph 27.6 mph N/A   Scattered Clouds
3:35 PM 64.8 °F - 40.5 °F 41% 30.14 in 10.0 mi South 18.4 mph 28.8 mph N/A   Scattered Clouds
3:55 PM 65.3 °F - 38.5 °F 37% 30.13 in 10.0 mi South 20.7 mph 29.9 mph N/A   Scattered Clouds
4:15 PM 64.6 °F - 38.5 °F 38% 30.12 in 10.0 mi South 19.6 mph 27.6 mph N/A   Mostly Cloudy
4:35 PM 63.5 °F - 38.8 °F 40% 30.12 in 10.0 mi South 19.6 mph 24.2 mph N/A   Overcast
4:55 PM 63.3 °F - 38.8 °F 40% 30.11 in 10.0 mi South 17.3 mph 25.3 mph N/A   Overcast
5:15 PM 61.5 °F - 41.5 °F 48% 30.11 in 10.0 mi SSE 17.3 mph 27.6 mph N/A   Overcast
5:35 PM 61.0 °F - 43.0 °F 52% 30.11 in 10.0 mi SSE 13.8 mph - N/A   Overcast
5:55 PM 60.4 °F - 43.9 °F 54% 30.11 in 10.0 mi SE 11.5 mph - N/A   Overcast
6:15 PM 62.1 °F - 43.5 °F 51% 30.11 in 10.0 mi SSE 15.0 mph - N/A   Overcast
6:35 PM 61.9 °F - 41.9 °F 48% 30.11 in 10.0 mi SSE 16.1 mph 20.7 mph N/A   Mostly Cloudy
6:55 PM 61.0 °F - 42.4 °F 51% 30.11 in 10.0 mi SSE 13.8 mph - N/A   Mostly Cloudy
7:15 PM 60.1 °F - 42.8 °F 53% 30.11 in 10.0 mi SSE 16.1 mph - N/A   Overcast
7:35 PM 58.6 °F - 44.2 °F 59% 30.11 in 10.0 mi SE 10.4 mph - N/A   Overcast
7:55 PM 56.7 °F - 44.8 °F 64% 30.12 in 10.0 mi SE 13.8 mph - N/A   Mostly Cloudy
8:15 PM 57.0 °F - 44.6 °F 63% 30.12 in 10.0 mi SE 13.8 mph 18.4 mph N/A   Overcast
8:35 PM 56.7 °F - 44.2 °F 63% 30.13 in 10.0 mi SE 15.0 mph 24.2 mph N/A   Overcast
8:55 PM 55.9 °F - 44.2 °F 65% 30.14 in 10.0 mi SE 16.1 mph 20.7 mph N/A   Mostly Cloudy
9:15 PM 55.6 °F - 43.7 °F 64% 30.14 in 10.0 mi SE 16.1 mph - N/A   Overcast
9:35 PM 55.4 °F - 43.3 °F 64% 30.15 in 10.0 mi SE 15.0 mph 20.7 mph N/A   Overcast
9:55 PM 54.9 °F - 42.8 °F 64% 30.16 in 10.0 mi SE 16.1 mph - N/A   Overcast
10:15 PM 54.5 °F - 43.0 °F 65% 30.16 in 10.0 mi SSE 15.0 mph 20.7 mph N/A   Overcast
10:35 PM 52.7 °F - 44.1 °F 72% 30.16 in 10.0 mi SSE 11.5 mph - N/A Rain Light Rain
10:55 PM 52.0 °F - 43.9 °F 74% 30.16 in 10.0 mi SSE 13.8 mph - N/A Rain Light Rain
11:15 PM 51.3 °F - 43.9 °F 76% 30.16 in 10.0 mi SE 12.7 mph - N/A Rain Light Rain
11:35 PM 51.8 °F - 43.2 °F 72% 30.16 in 10.0 mi SSE 13.8 mph - N/A   Overcast
11:55 PM 51.8 °F - 43.0 °F 72% 30.16 in 10.0 mi SSE 16.1 mph - N/A   Overcast